Wind_Speed
6 5 5 5 5 5 6 6 6 6 6 6 6 6 6 6 6 5 5 5 5 5 5 5 5 5 5 5 5 5 5 6 6 5 5 6 6 6 7 7 8 8 9
8 7 6 5 5 5 5 6 6 6 6 6 7 7 7 7 7 7 6 6 6 5 5 5 5 5 5 5 6 6 6 7 7 7 7 7 7 8 8 8 9 10 10
9 8 7 6 6 6 6 6 7 7 7 7 8 8 8 8 7 7 6 6 6 6 6 6 7 7 6 6 7 7 7 8 8 9 9 9 10 10 10 11 11 11 12
11 10 9 8 8 7 7 7 8 8 8 8 9 9 8 8 8 7 7 7 7 7 7 7 8 8 8 8 8 9 9 9 10 10 11 12 12 13 13 13 13 13 14
12 11 10 10 9 8 8 8 9 9 10 10 10 10 9 9 9 9 9 9 9 9 9 9 9 9 9 10 10 10 11 11 11 12 13 13 14 15 15 15 15 15 15
13 12 11 12 11 10 9 10 10 10 11 11 11 11 11 11 11 10 10 10 10 10 10 10 10 10 10 11 11 11 12 13 13 13 14 15 15 16 16 16 17 16 16
13 13 13 14 13 12 11 11 11 11 12 12 12 12 12 12 12 12 11 11 11 11 12 12 12 12 12 12 12 12 13 14 14 15 15 16 16 17 17 17 17 17 18
15 14 15 15 15 15 14 13 12 13 13 13 12 12 13 13 13 13 13 13 13 13 14 14 14 15 14 14 14 14 14 14 15 16 16 17 17 18 18 18 18 18 18
17 16 17 17 16 16 16 14 13 14 14 14 14 14 14 14 15 15 15 15 14 15 16 16 16 17 17 16 16 15 15 15 16 16 17 18 18 19 19 19 19 19 19
20 19 18 19 18 17 16 15 14 15 16 15 15 16 16 15 15 16 17 17 17 17 17 17 18 18 18 17 16 16 16 16 16 17 18 18 18 19 19 19 20 21 21
21 20 19 19 18 17 17 16 16 16 17 17 17 17 18 17 17 18 19 19 19 19 19 18 19 19 19 19 18 18 18 18 18 18 19 19 19 20 20 21 22 22 22
18 19 19 19 19 18 17 17 18 18 18 18 18 18 18 18 19 19 19 20 20 20 19 19 20 21 21 21 20 20 20 20 20 21 21 21 21 21 21 22 23 23 23
19 19 19 19 19 18 18 18 17 17 18 19 19 19 19 19 19 19 20 21 21 20 21 21 21 22 21 21 21 21 21 22 22 22 22 22 22 22 22 23 24 24 24
20 21 20 20 20 19 18 18 17 17 18 18 19 19 19 19 20 20 20 21 21 21 22 23 23 22 21 21 21 22 23 23 23 23 23 23 23 24 24 24 25 25 25
21 21 21 20 20 20 20 19 18 18 19 19 20 20 20 21 21 21 21 21 22 22 22 24 24 23 23 23 23 23 23 24 24 24 24 23 24 25 25 25 25 25 25
22 23 24 23 22 22 21 20 20 20 20 21 21 22 22 21 21 21 22 21 21 22 23 23 23 23 23 24 24 24 25 25 25 25 25 25 25 25 26 26 26 26 26
26 25 25 25 25 23 23 21 21 21 22 23 23 23 23 22 22 22 21 21 22 22 23 23 24 23 23 24 25 25 25 25 25 26 26 26 26 26 26 27 27 28 28
27 27 26 26 25 24 23 23 23 23 23 23 23 24 23 22 22 22 22 22 22 23 23 23 24 24 25 25 26 25 26 26 26 26 26 27 27 26 27 27 27 27 27
29 29 28 27 27 26 25 25 25 25 25 24 24 24 23 23 22 22 22 23 23 23 24 25 25 26 26 26 26 26 26 26 26 26 27 27 27 27 27 27 27 26 26
28 29 29 29 29 28 27 28 28 27 26 25 25 24 24 23 23 23 23 24 24 25 25 25 26 27 26 26 25 26 27 27 27 27 27 27 27 27 27 26 26 26 26
30 29 30 30 28 27 27 27 27 27 26 25 25 24 24 24 24 24 24 24 25 25 26 26 26 26 25 26 27 28 28 28 27 27 26 26 27 26 26 26 26 26 26
31 30 30 29 28 28 27 27 27 27 26 26 25 26 25 25 25 25 26 26 26 26 27 26 27 27 26 26 27 27 28 27 27 27 27 27 26 26 26 26 26 26 26
30 30 30 29 29 29 28 27 27 27 26 26 25 26 26 27 27 27 27 27 27 28 28 27 28 28 27 27 27 27 28 28 28 27 27 26 25 26 26 27 26 26 26
31 31 31 29 29 29 29 28 27 27 27 27 27 27 27 27 28 27 28 28 28 28 28 27 28 28 27 27 27 27 28 28 28 28 27 26 26 26 27 27 27 27 26
33 31 30 30 29 29 29 28 28 28 28 28 27 28 28 28 28 28 28 28 29 29 29 29 30 29 28 27 27 27 28 28 28 27 27 27 26 27 27 27 28 27 26
32 32 32 32 31 30 30 29 29 29 30 30 29 29 29 29 29 29 29 29 30 30 30 30 30 29 28 27 27 27 28 28 28 28 28 27 27 28 28 27 27 26 26
Wind_Direction
335 340 345 349 355 359 1 1 0 360 1 1 357 352 348 346 343 342 340 343 343 341 343 341 338 333 326 322 317 313 314 317 319 319 314 307 310 310 312 312 313 312 311
315 324 329 331 332 336 342 346 349 348 347 343 341 341 341 339 336 335 333 331 326 323 318 320 324 322 319 315 314 313 309 311 312 310 308 307 306 306 308 308 310 309 308
305 301 306 313 315 318 323 330 335 335 334 333 334 333 331 330 331 329 324 322 320 315 313 310 313 314 315 314 309 307 305 303 302 302 304 307 307 305 305 305 304 306 305
295 296 298 301 306 308 312 318 321 324 325 324 324 325 324 325 326 327 325 320 317 314 308 307 308 309 311 310 308 306 304 303 301 300 300 301 303 303 303 301 302 302 300
287 290 294 294 301 299 301 307 312 315 316 318 317 318 317 318 320 320 318 316 315 315 313 307 304 304 305 306 304 303 302 302 301 299 299 299 299 300 302 299 298 298 299
280 279 284 291 293 293 295 298 303 307 311 314 313 311 310 311 313 312 311 311 312 312 312 308 304 303 305 305 304 301 301 301 300 299 300 300 300 300 301 302 300 297 296
276 277 278 284 289 291 292 293 296 300 305 310 309 307 305 305 305 305 305 308 309 310 311 310 308 305 304 304 303 300 300 301 300 298 299 300 301 300 301 302 302 300 298
271 275 278 281 286 289 290 288 290 293 297 302 304 303 303 301 299 300 303 304 304 306 309 309 308 307 304 299 301 299 301 301 298 297 298 300 302 302 300 302 303 302 299
272 276 279 279 280 283 284 282 283 286 288 292 296 298 300 300 297 295 297 300 301 304 305 307 307 308 309 304 301 301 303 304 301 299 299 301 301 301 299 300 302 303 301
275 275 274 275 277 277 277 278 279 281 283 287 291 293 294 295 295 294 293 297 300 303 303 303 305 306 306 304 304 306 305 303 303 302 303 302 301 299 300 301 302 302 302
274 274 271 271 271 272 274 275 276 277 280 283 287 291 290 293 294 293 294 294 296 299 301 301 303 303 304 303 303 304 306 304 301 300 299 299 298 296 297 298 299 300 301
270 271 271 270 272 272 273 274 275 276 278 282 286 287 290 292 294 294 293 294 295 297 299 299 301 302 302 300 300 301 303 301 299 299 298 297 296 295 295 295 297 298 298
268 267 267 271 273 272 271 272 276 278 281 287 290 292 289 291 293 293 291 293 294 293 294 297 298 299 299 299 299 299 300 300 298 299 299 297 297 297 296 296 297 298 298
268 268 266 267 270 270 271 273 275 278 281 286 290 292 293 293 294 294 292 293 294 292 292 294 296 297 296 298 300 300 300 301 300 300 301 300 299 298 297 296 296 296 297
268 268 267 266 268 269 269 271 273 277 281 283 286 289 290 292 293 293 294 293 293 293 293 294 294 294 295 297 299 300 302 304 304 302 303 301 299 298 296 295 295 295 294
263 265 266 266 265 265 266 268 272 277 280 283 285 287 289 290 291 291 292 293 292 293 293 294 294 294 294 296 298 299 301 303 304 304 304 303 301 299 298 297 295 294 294
268 267 265 264 262 263 263 267 271 275 280 282 285 287 287 287 288 290 292 295 294 294 293 294 295 294 294 295 298 300 301 302 303 303 303 302 301 301 300 297 295 294 293
265 265 263 263 261 260 261 263 270 274 277 281 284 286 286 287 290 290 290 294 294 294 294 294 295 294 294 295 298 301 302 302 302 303 302 301 301 300 299 297 295 293 292
265 265 262 261 262 261 261 264 268 272 275 279 281 283 283 285 287 288 289 293 295 294 294 294 294 294 294 294 296 299 300 301 302 302 300 301 302 300 300 299 297 296 293
264 264 264 265 264 262 263 265 268 272 276 277 277 278 279 281 284 286 288 291 294 296 294 294 294 294 293 293 294 297 298 299 301 301 302 302 303 302 300 298 297 297 296
263 264 265 266 264 265 268 269 270 272 274 274 274 275 277 278 281 283 286 289 291 293 296 295 295 294 292 292 293 294 296 298 300 301 300 302 304 303 302 300 298 298 297
263 263 263 264 264 265 266 268 269 271 272 273 273 274 275 278 280 282 285 287 289 291 294 295 295 294 293 293 293 294 296 297 299 299 301 302 303 301 302 302 300 298 298
260 260 262 262 263 263 264 266 267 269 271 272 274 276 277 279 281 284 286 287 288 290 292 294 297 297 295 294 294 295 295 295 298 300 300 302 304 303 302 303 303 300 298
260 261 262 261 263 265 266 266 267 268 270 272 273 276 279 280 282 284 286 289 290 290 293 294 296 296 294 294 295 296 297 297 298 299 300 301 303 304 303 302 303 302 299
259 260 260 261 262 263 265 266 267 269 270 272 274 276 278 280 282 284 287 289 290 288 289 290 294 293 292 293 294 296 297 297 297 297 297 299 301 303 304 304 304 303 301
256 258 259 259 260 262 264 264 264 266 269 271 272 274 276 278 281 283 285 287 289 289 289 290 292 292 292 292 295 296 296 296 297 297 297 298 300 303 304 304 303 302 301
Height
5914 5913 5913 5912 5912 5912 5911 5911 5911 5910 5910 5909 5909 5908 5908 5907 5906 5906 5905 5905 5905 5904 5904 5904 5903 5903 5903 5902 5902 5902 5901 5901 5900 5900 5900 5900 5899 5899 5898 5898 5897 5896 5895
5913 5913 5912 5912 5912 5912 5912 5911 5911 5911 5910 5910 5909 5909 5908 5907 5906 5906 5905 5904 5904 5904 5904 5903 5903 5903 5902 5902 5901 5901 5900 5900 5899 5899 5898 5898 5898 5897 5897 5896 5896 5895 5894
5912 5912 5911 5912 5912 5912 5911 5911 5911 5911 5910 5910 5909 5908 5908 5907 5906 5905 5904 5904 5903 5903 5903 5902 5902 5902 5901 5901 5900 5900 5899 5899 5898 5897 5897 5897 5896 5895 5895 5894 5893 5892 5891
5911 5911 5911 5911 5911 5911 5911 5911 5910 5910 5910 5909 5909 5908 5907 5906 5905 5905 5904 5903 5902 5902 5902 5901 5901 5900 5900 5899 5899 5898 5898 5897 5897 5896 5895 5894 5893 5893 5892 5891 5890 5889 5887
5910 5910 5909 5909 5909 5910 5910 5910 5909 5909 5909 5908 5908 5907 5906 5905 5905 5904 5903 5902 5901 5901 5900 5899 5899 5899 5898 5898 5897 5896 5896 5895 5894 5894 5893 5892 5891 5890 5889 5888 5887 5886 5884
5908 5908 5908 5908 5907 5907 5908 5908 5908 5908 5907 5907 5906 5906 5905 5904 5903 5902 5901 5901 5900 5899 5898 5898 5897 5897 5896 5895 5895 5894 5893 5892 5892 5891 5890 5889 5888 5886 5885 5884 5883 5882 5881
5906 5906 5906 5906 5905 5905 5906 5906 5906 5906 5906 5905 5905 5904 5903 5902 5901 5900 5900 5899 5898 5897 5897 5896 5895 5894 5894 5893 5892 5891 5890 5889 5888 5888 5887 5886 5884 5883 5881 5880 5879 5878 5877
5903 5903 5903 5904 5903 5903 5904 5904 5904 5904 5904 5903 5902 5902 5901 5900 5899 5898 5897 5896 5896 5895 5895 5893 5893 5892 5890 5889 5889 5888 5887 5886 5885 5884 5883 5882 5880 5879 5877 5876 5875 5874 5873
5901 5900 5900 5900 5901 5901 5901 5901 5901 5901 5900 5900 5900 5899 5899 5898 5897 5896 5895 5894 5893 5893 5892 5891 5890 5889 5887 5886 5885 5885 5884 5882 5881 5880 5879 5877 5876 5874 5873 5872 5870 5869 5868
5897 5897 5897 5897 5897 5897 5897 5897 5898 5897 5897 5897 5896 5896 5896 5895 5894 5893 5892 5891 5890 5889 5888 5888 5887 5885 5884 5883 5882 5881 5880 5879 5877 5876 5875 5873 5872 5870 5869 5867 5866 5864 5863
5893 5893 5893 5893 5892 5893 5893 5894 5894 5894 5893 5893 5893 5893 5892 5891 5890 5889 5888 5888 5887 5886 5885 5884 5883 5881 5880 5879 5878 5877 5876 5874 5873 5872 5870 5869 5867 5865 5864 5862 5861 5859 5857
5889 5889 5889 5889 5889 5889 5889 5889 5889 5889 5889 5889 5888 5888 5887 5887 5886 5885 5885 5884 5883 5882 5881 5880 5879 5877 5876 5874 5873 5872 5871 5870 5868 5867 5865 5863 5862 5860 5858 5856 5855 5853 5852
5884 5884 5884 5884 5884 5885 5885 5885 5885 5885 5885 5885 5884 5884 5883 5882 5882 5881 5880 5880 5879 5878 5877 5875 5874 5873 5871 5870 5868 5867 5866 5864 5863 5861 5859 5858 5856 5854 5852 5851 5849 5847 5846
5879 5880 5880 5880 5880 5881 5881 5881 5881 5881 5881 5881 5880 5880 5879 5878 5878 5877 5876 5875 5874 5873 5872 5871 5869 5868 5866 5865 5863 5862 5860 5858 5857 5855 5853 5851 5850 5848 5846 5845 5843 5841 5839
5873 5875 5875 5876 5876 5876 5877 5877 5877 5877 5877 5877 5876 5875 5875 5874 5873 5872 5871 5870 5869 5868 5866 5865 5864 5862 5861 5859 5858 5856 5854 5852 5850 5849 5847 5845 5843 5842 5840 5838 5836 5834 5833
5867 5869 5870 5870 5871 5871 5872 5872 5872 5872 5872 5872 5871 5871 5870 5869 5868 5867 5866 5864 5863 5862 5861 5860 5858 5857 5855 5854 5852 5850 5848 5847 5845 5843 5841 5839 5837 5835 5833 5831 5829 5827 5826
5862 5863 5864 5863 5864 5865 5866 5867 5867 5867 5867 5866 5866 5865 5865 5864 5863 5862 5861 5859 5858 5857 5856 5855 5853 5851 5850 5848 5846 5844 5843 5841 5839 5837 5834 5832 5830 5828 5826 5824 5822 5820 5818
5856 5856 5857 5856 5857 5858 5860 5861 5861 5861 5861 5861 5861 5860 5859 5858 5857 5856 5856 5854 5853 5851 5850 5849 5847 5846 5844 5842 5840 5838 5836 5834 5832 5830 5828 5825 5823 5821 5819 5817 5815 5813 5811
5849 5849 5849 5850 5850 5852 5853 5854 5855 5855 5856 5855 5855 5854 5854 5853 5852 5851 5850 5849 5847 5846 5844 5843 5841 5839 5837 5835 5833 5831 5829 5828 5825 5823 5821 5818 5816 5814 5812 5810 5808 5806 5804
5842 5842 5843 5844 5845 5846 5847 5848 5849 5849 5849 5849 5849 5848 5848 5847 5846 5845 5844 5843 5842 5840 5838 5836 5834 5832 5830 5828 5827 5825 5823 5821 5819 5817 5814 5812 5810 5807 5805 5802 5801 5799 5797
5834 5835 5836 5837 5838 5838 5840 5841 5842 5842 5842 5842 5842 5842 5841 5841 5840 5839 5838 5837 5836 5834 5832 5830 5828 5825 5823 5822 5820 5818 5816 5814 5812 5810 5808 5805 5803 5801 5798 5796 5794 5792 5790
5826 5828 5829 5830 5831 5832 5834 5834 5835 5835 5835 5835 5835 5835 5834 5834 5833 5833 5832 5830 5829 5827 5825 5823 5821 5819 5817 5815 5813 5811 5809 5807 5805 5803 5801 5799 5796 5794 5792 5789 5787 5785 5783
5819 5820 5822 5823 5824 5825 5826 5827 5827 5828 5828 5828 5828 5828 5827 5827 5827 5826 5825 5823 5822 5820 5818 5816 5814 5811 5810 5808 5806 5804 5802 5800 5798 5796 5794 5792 5790 5787 5785 5782 5780 5778 5776
5811 5813 5814 5815 5817 5818 5818 5819 5820 5820 5821 5821 5821 5821 5820 5820 5819 5819 5818 5817 5815 5813 5811 5808 5806 5804 5802 5801 5798 5796 5794 5792 5790 5789 5787 5785 5783 5781 5778 5776 5773 5771 5769
5803 5805 5806 5808 5809 5810 5811 5812 5812 5813 5813 5814 5814 5813 5813 5812 5812 5812 5811 5810 5808 5806 5804 5802 5800 5798 5795 5793 5791 5789 5787 5785 5783 5781 5780 5778 5776 5774 5771 5769 5766 5763 5761
5794 5796 5798 5799 5801 5802 5803 5803 5804 5805 5805 5806 5806 5806 5805 5805 5805 5804 5803 5802 5800 5798 5796 5794 5792 5790 5788 5786 5784 5782 5780 5778 5776 5774 5773 5771 5769 5767 5764 5761 5758 5756 5754